カタログに戻る

STARLINK-36113

運用中通信VLEO
NORAD 66982·PAYLOAD·🇺🇸 United States

打ち上げ Dec 8, 2025 から Cape Canaveral Space Force Station

Loading…

次のパス (今後24時間)

TLE

最新Source: CelesTrak SupGP

元期: Sep 15, 2026, 03:32 UTC

1 66982C 25288Z   26258.14770833  .00001168  00000+0  42313-4 0  2582
2 66982  43.0010  33.1254 0001579 263.5459 208.9830 15.27579843    17

AllMySatでSTARLINK-36113をリアルタイム追跡

Download on the App Store